When you browse on this site, cookies collect data to enhance your experience and personalize the content and advertising you see.
Visit our Privacy Policy to learn more. By continuing to use the site, you agree to this use of cookies and data.
  • In Hungary
  • List of Countries
  • For 7 days
  • Water Temperature
  • Satellite Maps
  • Weather Map
  • News
  • Weather Widgets
  • user-avatar
    Login

    Hourly Weather Meinerzhagen

    Today, 26 June, Wednesday

    Time Temperature Precipitation Wind Pressure Humidity
    00:00 +20°C° 0 mm 0 mps 727 mmHg 78%
    01:00 +20°C° 0 mm 0 mps 727 mmHg 78%
    02:00 +20°C° 0 mm 0 mps 727 mmHg 81%
    03:00 +19°C° 0 mm 0 mps 727 mmHg 84%
    04:00 +19°C° 0 mm 0 mps 727 mmHg 87%
    05:00 +20°C° 0 mm 0 mps 728 mmHg 83%
    06:00 +24°C° 0 mm 1 mps 728 mmHg 80%
    07:00 +23°C° 0 mm 0 mps 729 mmHg 76%
    08:00 +27°C° 0 mm 1 mps 729 mmHg 70%
    09:00 +28°C° 0 mm 1 mps 730 mmHg 63%
    10:00 +30°C° 0 mm 2 mps 730 mmHg 57%
    11:00 +30°C° 0 mm 2 mps 730 mmHg 51%
    12:00 +31°C° 0 mm 2 mps 730 mmHg 45%
    13:00 +32°C° 0 mm 2 mps 731 mmHg 41%
    14:00 +33°C° 0 mm 3 mps 730 mmHg 42%
    15:00 +33°C° 0 mm 3 mps 730 mmHg 43%
    16:00 +31°C° 0 mm 3 mps 730 mmHg 44%
    17:00 +30°C° 0 mm 3 mps 730 mmHg 53%
    18:00 +28°C° 0 mm 3 mps 730 mmHg 63%
    19:00 +26°C° 0 mm 4 mps 730 mmHg 72%
    20:00 +23°C° 0 mm 4 mps 730 mmHg 77%
    21:00 +21°C° 0 mm 4 mps 730 mmHg 83%
    22:00 +19°C° 0 mm 4 mps 730 mmHg 88%
    23:00 +18°C° 0 mm 3 mps 731 mmHg 90%

    Tomorrow, 27 June, Thursday

    Time Temperature Precipitation Wind Pressure Humidity
    00:00 +17°C° 0 mm 3 mps 731 mmHg 93%
    01:00 +16°C° 0 mm 2 mps 731 mmHg 95%
    02:00 +15°C° 0 mm 2 mps 731 mmHg 95%
    03:00 +14°C° 0 mm 2 mps 731 mmHg 95%
    04:00 +13°C° 0 mm 2 mps 730 mmHg 95%
    05:00 +14°C° 0 mm 2 mps 731 mmHg 89%
    06:00 +15°C° 0 mm 2 mps 731 mmHg 83%
    07:00 +15°C° 0 mm 2 mps 731 mmHg 78%
    08:00 +17°C° 0 mm 2 mps 731 mmHg 67%
    09:00 +18°C° 0 mm 3 mps 732 mmHg 57%
    10:00 +20°C° 0 mm 3 mps 732 mmHg 47%
    11:00 +21°C° 0 mm 3 mps 732 mmHg 44%
    12:00 +22°C° 0 mm 3 mps 732 mmHg 41%
    13:00 +24°C° 0 mm 3 mps 732 mmHg 37%
    14:00 +24°C° 0 mm 3 mps 731 mmHg 40%
    15:00 +24°C° 0 mm 3 mps 731 mmHg 43%
    16:00 +23°C° 0 mm 4 mps 731 mmHg 46%
    17:00 +22°C° 0 mm 3 mps 731 mmHg 52%
    18:00 +21°C° 0 mm 3 mps 731 mmHg 59%
    19:00 +19°C° 0 mm 3 mps 730 mmHg 65%
    20:00 +17°C° 0 mm 3 mps 730 mmHg 74%
    21:00 +15°C° 0 mm 2 mps 731 mmHg 83%
    22:00 +13°C° 0 mm 2 mps 731 mmHg 92%
    23:00 +12°C° 0 mm 2 mps 731 mmHg 93%

    Day after tomorrow, 28 June, Friday

    Time Temperature Precipitation Wind Pressure Humidity
    00:00 +12°C° 0 mm 2 mps 731 mmHg 94%
    01:00 +10°C° 0 mm 2 mps 730 mmHg 96%
    02:00 +9°C° 0 mm 2 mps 730 mmHg 96%
    03:00 +10°C° 0 mm 1 mps 730 mmHg 97%
    04:00 +9°C° 0 mm 1 mps 730 mmHg 98%
    05:00 +10°C° 0 mm 1 mps 730 mmHg 91%
    06:00 +12°C° 0 mm 1 mps 730 mmHg 84%
    07:00 +13°C° 0 mm 1 mps 730 mmHg 78%
    08:00 +15°C° 0 mm 2 mps 730 mmHg 67%
    09:00 +18°C° 0 mm 2 mps 730 mmHg 56%
    10:00 +20°C° 0 mm 2 mps 730 mmHg 45%
    11:00 +21°C° 0 mm 2 mps 730 mmHg 43%
    12:00 +22°C° 0 mm 3 mps 730 mmHg 42%
    13:00 +24°C° 0 mm 3 mps 730 mmHg 40%
    14:00 +24°C° 0 mm 3 mps 729 mmHg 41%
    15:00 +24°C° 0 mm 3 mps 729 mmHg 42%
    16:00 +24°C° 0 mm 3 mps 729 mmHg 42%
    17:00 +22°C° 0 mm 3 mps 729 mmHg 48%
    18:00 +21°C° 0 mm 3 mps 728 mmHg 54%
    19:00 +20°C° 0 mm 3 mps 728 mmHg 60%
    20:00 +18°C° 0 mm 2 mps 728 mmHg 69%
    21:00 +16°C° 0 mm 2 mps 728 mmHg 77%
    22:00 +14°C° 0 mm 2 mps 728 mmHg 85%
    23:00 +13°C° 0 mm 2 mps 728 mmHg 87%

    29 June, Saturday

    Time Temperature Precipitation Wind Pressure Humidity
    00:00 +13°C° 0 mm 1 mps 728 mmHg 88%
    01:00 +12°C° 0 mm 1 mps 728 mmHg 90%
    02:00 +12°C° 0 mm 1 mps 727 mmHg 91%
    03:00 +12°C° 0 mm 1 mps 727 mmHg 91%
    04:00 +11°C° 0 mm 1 mps 727 mmHg 92%
    05:00 +13°C° 0 mm 1 mps 727 mmHg 84%
    06:00 +15°C° 0 mm 1 mps 727 mmHg 76%
    07:00 +18°C° 0 mm 1 mps 727 mmHg 67%
    08:00 +21°C° 0 mm 1 mps 727 mmHg 58%
    09:00 +23°C° 0 mm 1 mps 727 mmHg 48%
    10:00 +26°C° 0 mm 1 mps 727 mmHg 38%
    11:00 +27°C° 0 mm 1 mps 727 mmHg 35%
    12:00 +29°C° 0 mm 1 mps 727 mmHg 31%
    13:00 +30°C° 0 mm 2 mps 727 mmHg 28%
    14:00 +30°C° 0 mm 2 mps 726 mmHg 30%
    15:00 +30°C° 0 mm 2 mps 726 mmHg 31%
    16:00 +30°C° 0 mm 2 mps 725 mmHg 33%
    17:00 +29°C° 0 mm 2 mps 725 mmHg 42%
    18:00 +27°C° 0 mm 2 mps 725 mmHg 50%
    19:00 +26°C° 0 mm 2 mps 724 mmHg 58%
    20:00 +24°C° 0 mm 2 mps 724 mmHg 61%
    21:00 +21°C° 0 mm 2 mps 724 mmHg 64%
    22:00 +19°C° 0 mm 2 mps 724 mmHg 68%
    23:00 +18°C° 0 mm 2 mps 723 mmHg 69%

    30 June, Sunday

    Time Temperature Precipitation Wind Pressure Humidity
    00:00 +17°C° 0 mm 2 mps 723 mmHg 71%
    01:00 +17°C° 0 mm 2 mps 723 mmHg 73%
    02:00 +16°C° 0 mm 2 mps 723 mmHg 74%
    03:00 +16°C° 0 mm 2 mps 722 mmHg 75%
    04:00 +16°C° 0 mm 2 mps 722 mmHg 76%
    05:00 +17°C° 0 mm 2 mps 722 mmHg 73%
    06:00 +19°C° 0 mm 2 mps 722 mmHg 69%
    07:00 +20°C° 0 mm 2 mps 723 mmHg 66%
    08:00 +23°C° 0 mm 2 mps 723 mmHg 61%
    09:00 +25°C° 0 mm 2 mps 723 mmHg 56%
    10:00 +27°C° 0 mm 3 mps 723 mmHg 51%
    11:00 +28°C° 0 mm 3 mps 723 mmHg 49%
    12:00 +29°C° 0 mm 3 mps 724 mmHg 47%
    13:00 +30°C° 0 mm 4 mps 724 mmHg 45%
    14:00 +29°C° 0.1 mm 4 mps 724 mmHg 53%
    15:00 +28°C° 0.1 mm 4 mps 724 mmHg 60%
    16:00 +27°C° 0.1 mm 4 mps 724 mmHg 68%
    17:00 +26°C° 0 mm 4 mps 724 mmHg 67%
    18:00 +25°C° 0 mm 3 mps 724 mmHg 66%
    19:00 +24°C° 0 mm 3 mps 724 mmHg 66%
    20:00 +21°C° 0 mm 2 mps 725 mmHg 70%
    21:00 +19°C° 0 mm 2 mps 725 mmHg 73%
    22:00 +16°C° 0 mm 1 mps 725 mmHg 77%
    23:00 +15°C° 0 mm 1 mps 725 mmHg 80%

    1 July, Monday

    Time Temperature Precipitation Wind Pressure Humidity
    00:00 +14°C° 0 mm 1 mps 725 mmHg 84%
    01:00 +12°C° 0 mm 0 mps 725 mmHg 87%
    02:00 +12°C° 0 mm 0 mps 725 mmHg 88%
    03:00 +11°C° 0 mm 0 mps 725 mmHg 89%
    04:00 +11°C° 0 mm 0 mps 725 mmHg 91%
    05:00 +13°C° 0 mm 0 mps 725 mmHg 83%
    06:00 +15°C° 0 mm 1 mps 725 mmHg 76%
    07:00 +18°C° 0 mm 1 mps 726 mmHg 69%
    08:00 +20°C° 0 mm 1 mps 726 mmHg 62%
    09:00 +20°C° 0 mm 2 mps 726 mmHg 55%
    10:00 +23°C° 0 mm 2 mps 726 mmHg 49%
    11:00 +24°C° 0 mm 3 mps 726 mmHg 47%
    12:00 +25°C° 0 mm 3 mps 726 mmHg 45%
    13:00 +25°C° 0 mm 3 mps 726 mmHg 44%
    14:00 +25°C° 0 mm 4 mps 726 mmHg 44%
    15:00 +25°C° 0 mm 4 mps 726 mmHg 44%
    16:00 +26°C° 0 mm 4 mps 726 mmHg 44%
    17:00 +23°C° 0 mm 4 mps 726 mmHg 50%
    18:00 +22°C° 0 mm 4 mps 726 mmHg 55%
    19:00 +20°C° 0 mm 4 mps 726 mmHg 61%
    20:00 +18°C° 0 mm 3 mps 726 mmHg 68%
    21:00 +16°C° 0 mm 3 mps 727 mmHg 76%
    22:00 +14°C° 0 mm 2 mps 727 mmHg 83%
    23:00 +12°C° 0 mm 2 mps 727 mmHg 86%
    Show more